FW7718 Weather Reports


Display with metric or nautical units.
time (UTC)temp
F
wind
direction
speed
MPH
gust
MPH
rain 1hr
in
rain 24hr
in
rain mn
in
humidity
%
barometer
mb
20260905144533 88 217 5.0 6.0 0.00 0.00 0.00 64 1016.6
20260905144032 88 212 3.0 5.0 0.00 0.00 0.00 63 1016.3
20260905143532 88 120 1.0 1.0 0.00 0.00 0.00 63 1016.6
20260905143027 87 209 2.0 3.0 0.00 0.00 0.00 64 1016.2
20260905142525 87 218 3.0 3.0 0.00 0.00 0.00 63 1016.2
20260905142021 86 170 2.0 2.0 0.00 0.00 0.00 64 1016.0
20260905141515 86 202 3.0 3.0 0.00 0.00 0.00 65 1016.0
20260905141012 86 203 3.0 3.0 0.00 0.00 0.00 66 1016.0
20260905140507 85 169 3.0 3.0 0.00 0.00 0.00 65 1016.2
20260905140006 84 140 2.0 3.0 0.00 0.00 0.00 67 1016.2
20260905135501 84 133 1.0 1.0 0.00 0.00 0.00 68 1016.5
20260905134956 83 137 1.0 1.0 0.00 0.00 0.00 69 1016.3
20260905134455 83 182 3.0 3.0 0.00 0.00 0.00 69 1016.5
20260905133954 83 125 1.0 1.0 0.00 0.00 0.00 70 1016.2
20260905133449 82 144 1.0 1.0 0.00 0.00 0.00 70 1016.1
20260905132944 82 216 2.0 2.0 0.00 0.00 0.00 71 1016.0
20260905132439 82 216 2.0 2.0 0.00 0.00 0.00 71 1015.8
20260905131934 82 216 1.0 1.0 0.00 0.00 0.00 71 1016.0
20260905131430 82 216 2.0 2.0 0.00 0.00 0.00 72 1015.9
20260905130930 82 216 0.0 0.0 0.00 0.00 0.00 72 1015.8
20260905130424 81 216 0.0 1.0 0.00 0.00 0.00 74 1015.9
20260905125924 80 216 1.0 1.0 0.00 0.00 0.00 75 1015.7
20260905125419 79 216 0.0 0.0 0.00 0.00 0.00 77 1015.6
20260905124914 78 216 0.0 0.0 0.00 0.00 0.00 79 1015.7
20260905124411 77 216 0.0 0.0 0.00 0.00 0.00 81 1015.6
20260905123910 77 216 0.0 1.0 0.00 0.00 0.00 82 1015.6
20260905123407 76 216 1.0 1.0 0.00 0.00 0.00 83 1015.4
20260905122902 76 216 2.0 2.0 0.00 0.00 0.00 84 1015.5
20260905122401 75 216 1.0 1.0 0.00 0.00 0.00 85 1015.3
20260905121857 75 216 0.0 0.0 0.00 0.00 0.00 85 1015.3
20260905121353 75 216 1.0 1.0 0.00 0.00 0.00 85 1015.4
20260905120852 75 216 1.0 1.0 0.00 0.00 0.00 85 1015.5
20260905120346 75 216 1.0 1.0 0.00 0.00 0.00 85 1015.4
20260905115842 75 216 0.0 0.0 0.00 0.00 0.00 85 1015.3
20260905115340 75 216 2.0 2.0 0.00 0.00 0.00 84 1015.2
20260905114835 75 217 1.0 2.0 0.00 0.00 0.00 84 1015.3
20260905114334 75 217 0.0 0.0 0.00 0.00 0.00 84 1015.2
20260905113833 75 217 0.0 0.0 0.00 0.00 0.00 82 1015.4
20260905113324 75 217 0.0 0.0 0.00 0.00 0.00 81 1015.3
20260905112819 75 217 0.0 0.0 0.00 0.00 0.00 82 1015.5
20260905112313 75 217 0.0 0.0 0.00 0.00 0.00 81 1015.1
20260905111808 76 217 0.0 0.0 0.00 0.00 0.00 82 1015.3
20260905111303 76 217 0.0 0.0 0.00 0.00 0.00 82 1015.4
20260905110802 76 217 0.0 0.0 0.00 0.00 0.00 81 1015.2
20260905110256 76 217 0.0 0.0 0.00 0.00 0.00 81 1015.3
20260905105752 77 217 0.0 0.0 0.00 0.00 0.00 80 1015.2
20260905105251 77 217 0.0 1.0 0.00 0.00 0.00 80 1015.2
20260905104745 77 217 0.0 0.0 0.00 0.00 0.00 79 1015.0
20260905104241 77 217 1.0 1.0 0.00 0.00 0.00 79 1015.4
20260905103736 77 217 1.0 1.0 0.00 0.00 0.00 78 1015.3
20260905103232 77 217 1.0 1.0 0.00 0.00 0.00 78 1015.4
20260905102727 77 217 2.0 2.0 0.00 0.00 0.00 79 1015.4
20260905102224 77 211 2.0 2.0 0.00 0.00 0.00 78 1015.3
20260905101723 77 232 2.0 2.0 0.00 0.00 0.00 78 1015.2
20260905101221 77 232 3.0 3.0 0.00 0.00 0.00 79 1015.1
20260905100718 77 202 2.0 2.0 0.00 0.00 0.00 79 1015.1
20260905100218 77 202 1.0 1.0 0.00 0.00 0.00 77 1015.2
20260905095718 77 202 1.0 1.0 0.00 0.00 0.00 77 1015.1
20260905095217 77 202 1.0 1.0 0.00 0.00 0.00 76 1015.1
20260905094712 77 202 1.0 1.0 0.00 0.00 0.00 75 1015.1
20260905094207 78 202 1.0 1.0 0.00 0.00 0.00 75 1015.2
20260905093701 78 202 0.0 1.0 0.00 0.00 0.00 77 1014.9
20260905093157 78 202 1.0 1.0 0.00 0.00 0.00 77 1014.9
20260905092653 78 202 1.0 1.0 0.00 0.00 0.00 76 1015.1
20260905092148 78 201 1.0 1.0 0.00 0.00 0.00 77 1014.9
20260905091647 78 201 0.0 0.0 0.00 0.00 0.00 78 1014.9
20260905091142 78 201 0.0 0.0 0.00 0.00 0.00 78 1014.7
20260905090636 78 201 0.0 0.0 0.00 0.00 0.00 76 1015.0
20260905090132 78 201 0.0 0.0 0.00 0.00 0.00 76 1014.9
20260905085631 79 201 0.0 0.0 0.00 0.00 0.00 75 1015.0
20260905085126 79 201 0.0 1.0 0.00 0.00 0.00 75 1014.6
20260905084625 79 201 1.0 1.0 0.00 0.00 0.00 74 1014.8
20260905084120 79 201 1.0 1.0 0.00 0.00 0.00 74 1014.6
20260905083615 80 201 1.0 1.0 0.00 0.00 0.00 74 1014.6
20260905083112 80 200 2.0 2.0 0.00 0.00 0.00 73 1014.3
20260905082607 80 197 3.0 3.0 0.00 0.00 0.00 73 1014.4
20260905082102 80 204 3.0 3.0 0.00 0.00 0.00 73 1014.4
20260905081601 80 204 4.0 5.0 0.00 0.00 0.00 73 1014.5
20260905081056 80 198 4.0 5.0 0.00 0.00 0.00 74 1014.5
20260905080550 80 198 4.0 5.0 0.00 0.00 0.00 74 1014.5
20260905080046 80 187 3.0 3.0 0.00 0.00 0.00 73 1014.8
20260905075539 81 192 2.0 2.0 0.00 0.00 0.00 72 1014.5
20260905075038 81 206 2.0 2.0 0.00 0.00 0.00 71 1014.7
20260905074532 81 215 3.0 3.0 0.00 0.00 0.00 71 1014.7
20260905074029 80 223 3.0 3.0 0.00 0.00 0.00 71 1014.8
20260905073524 80 213 2.0 2.0 0.00 0.00 0.00 72 1014.9
20260905073020 80 211 1.0 2.0 0.00 0.00 0.00 72 1014.8
20260905072519 80 211 2.0 2.0 0.00 0.00 0.00 73 1014.9
20260905072014 80 205 2.0 2.0 0.00 0.00 0.00 74 1015.0
20260905071511 80 205 1.0 1.0 0.00 0.00 0.00 74 1015.0
20260905071011 80 205 1.0 1.0 0.00 0.00 0.00 73 1015.2
20260905070506 80 205 1.0 2.0 0.00 0.00 0.00 73 1015.3
20260905070001 80 205 1.0 1.0 0.00 0.00 0.00 73 1015.2
20260905065500 80 205 1.0 1.0 0.00 0.00 0.00 72 1015.2
20260905064955 81 205 1.0 2.0 0.00 0.00 0.00 72 1015.3
20260905064449 81 205 1.0 1.0 0.00 0.00 0.00 72 1015.4
20260905063944 81 205 1.0 1.0 0.00 0.00 0.00 71 1015.5
20260905063433 81 213 2.0 2.0 0.00 0.00 0.00 71 1015.3
20260905062929 81 215 2.0 2.0 0.00 0.00 0.00 70 1015.1
20260905062423 81 213 2.0 2.0 0.00 0.00 0.00 70 1015.3
20260905061918 82 207 2.0 2.0 0.00 0.00 0.00 69 1015.3
20260905061413 82 202 2.0 2.0 0.00 0.00 0.00 69 1015.4
20260905060912 82 198 2.0 2.0 0.00 0.00 0.00 69 1015.3
20260905060409 82 197 2.0 2.0 0.00 0.00 0.00 69 1015.1
20260905055908 82 186 2.0 2.0 0.00 0.00 0.00 69 1015.1
20260905055403 82 171 2.0 2.0 0.00 0.00 0.00 69 1015.1
20260905054902 82 184 3.0 3.0 0.00 0.00 0.00 68 1014.8
20260905054359 82 187 3.0 3.0 0.00 0.00 0.00 68 1014.8
20260905053858 83 194 3.0 3.0 0.00 0.00 0.00 67 1014.6
20260905053353 83 192 3.0 5.0 0.00 0.00 0.00 67 1014.8
20260905052849 83 177 2.0 2.0 0.00 0.00 0.00 67 1014.9
20260905052348 83 187 3.0 3.0 0.00 0.00 0.00 66 1014.9
20260905051848 83 184 3.0 3.0 0.00 0.00 0.00 66 1014.9
20260905051344 84 171 3.0 3.0 0.00 0.00 0.00 65 1015.0
20260905050841 84 194 3.0 5.0 0.00 0.00 0.00 65 1014.9
20260905050336 84 207 3.0 3.0 0.00 0.00 0.00 65 1014.7
20260905045831 84 186 4.0 5.0 0.00 0.00 0.00 64 1014.9
20260905045326 84 194 3.0 3.0 0.00 0.00 0.00 64 1014.5
20260905044822 84 177 2.0 3.0 0.00 0.00 0.00 63 1014.7
20260905044317 84 201 5.0 6.0 0.00 0.00 0.00 63 1014.9
20260905043815 85 165 4.0 5.0 0.00 0.00 0.00 63 1014.7
20260905043310 85 178 4.0 5.0 0.00 0.00 0.00 63 1014.9
20260905042810 85 183 3.0 3.0 0.00 0.00 0.00 62 1014.9
20260905042307 85 177 2.0 2.0 0.00 0.00 0.00 62 1014.6
20260905041800 85 195 4.0 6.0 0.00 0.00 0.00 62 1014.8
20260905041256 85 172 3.0 5.0 0.00 0.00 0.00 62 1014.6
20260905040751 85 173 2.0 2.0 0.00 0.00 0.00 62 1014.5
20260905040249 85 159 3.0 3.0 0.00 0.00 0.00 62 1014.7
20260905035744 85 188 2.0 2.0 0.00 0.00 0.00 62 1014.7
20260905035240 86 171 3.0 3.0 0.00 0.00 0.00 61 1015.0
20260905034736 86 161 2.0 2.0 0.00 0.00 0.00 61 1014.8
20260905034231 86 185 2.0 2.0 0.00 0.00 0.00 61 1014.6
20260905033730 86 172 4.0 5.0 0.00 0.00 0.00 61 1014.8
20260905033225 86 173 2.0 2.0 0.00 0.00 0.00 60 1014.8
20260905032724 86 175 3.0 5.0 0.00 0.00 0.00 60 1015.0
20260905032220 86 182 3.0 5.0 0.00 0.00 0.00 60 1014.9
20260905031715 86 137 3.0 3.0 0.00 0.00 0.00 60 1014.8
20260905031211 86 152 3.0 3.0 0.00 0.00 0.00 60 1014.6
20260905030706 86 148 2.0 2.0 0.00 0.00 0.00 59 1014.6
20260905030201 86 160 2.0 2.0 0.00 0.00 0.00 59 1014.7
20260905025656 87 175 3.0 3.0 0.00 0.00 0.00 59 1014.6
20260905025151 87 162 2.0 3.0 0.00 0.00 0.00 59 1014.5
20260905024647 87 176 3.0 5.0 0.00 0.00 0.00 58 1014.5
20260905024143 87 172 3.0 3.0 0.00 0.00 0.00 58 1014.3
20260905023638 87 148 4.0 5.0 0.00 0.00 0.00 58 1014.5
20260905023137 87 143 2.0 2.0 0.00 0.00 0.00 58 1014.4
20260905022636 87 143 1.0 2.0 0.00 0.00 0.00 58 1014.4
20260905022131 87 141 2.0 2.0 0.00 0.00 0.00 58 1014.3
20260905021626 87 146 2.0 2.0 0.00 0.00 0.00 57 1014.0
20260905021122 87 149 2.0 2.0 0.00 0.00 0.00 57 1014.1
20260905020621 87 166 3.0 3.0 0.00 0.00 0.00 57 1013.9
20260905020117 87 160 2.0 2.0 0.00 0.00 0.00 56 1013.8
20260905015615 87 153 3.0 3.0 0.00 0.00 0.00 56 1014.0
20260905015109 87 139 2.0 2.0 0.00 0.00 0.00 56 1013.8
20260905014603 88 148 2.0 2.0 0.00 0.00 0.00 55 1013.9
20260905014059 88 147 1.0 1.0 0.00 0.00 0.00 55 1013.9
20260905013555 88 147 1.0 1.0 0.00 0.00 0.00 54 1013.9
20260905013052 89 147 1.0 2.0 0.00 0.00 0.00 54 1013.6
20260905012550 89 147 1.0 1.0 0.00 0.00 0.00 53 1013.6
20260905012048 89 147 2.0 2.0 0.00 0.00 0.00 53 1013.6
20260905011543 89 147 1.0 2.0 0.00 0.00 0.00 53 1013.7
20260905011038 89 154 2.0 2.0 0.00 0.00 0.00 53 1013.6
20260905010533 90 153 2.0 2.0 0.00 0.00 0.00 52 1013.7
20260905010030 90 141 3.0 3.0 0.00 0.00 0.00 52 1013.5
20260905005525 91 162 4.0 5.0 0.00 0.00 0.00 51 1013.6
20260905005021 91 145 3.0 3.0 0.00 0.00 0.00 51 1013.4
20260905004520 91 151 3.0 5.0 0.00 0.00 0.00 50 1013.3
20260905004015 92 133 3.0 3.0 0.00 0.00 0.00 50 1013.6
20260905003512 92 144 5.0 6.0 0.00 0.00 0.00 49 1013.3
20260905003007 93 157 5.0 6.0 0.00 0.00 0.00 48 1013.3
20260905002502 93 201 5.0 8.0 0.00 0.00 0.00 48 1013.3
20260905001956 93 132 4.0 5.0 0.00 0.00 0.00 47 1013.3
20260905001450 94 171 7.0 8.0 0.00 0.00 0.00 47 1013.2
20260905000945 94 189 5.0 6.0 0.00 0.00 0.00 47 1013.2
20260905000441 94 163 6.0 7.0 0.00 0.00 0.00 46 1013.4
20260904235936 94 174 6.0 7.0 0.00 0.00 0.00 45 1013.1
20260904235432 95 185 6.0 8.0 0.00 0.00 0.00 45 1013.3
20260904234931 95 198 7.0 8.0 0.00 0.00 0.00 46 1013.2
20260904234426 95 139 6.0 7.0 0.00 0.00 0.00 46 1013.0
20260904233922 95 157 4.0 6.0 0.00 0.00 0.00 45 1013.1
20260904233417 95 190 5.0 7.0 0.00 0.00 0.00 45 1013.2
20260904232913 95 152 5.0 6.0 0.00 0.00 0.00 44 1013.0
20260904232410 95 181 5.0 6.0 0.00 0.00 0.00 44 1013.1
20260904231905 96 197 7.0 9.0 0.00 0.00 0.00 44 1013.0
20260904231400 96 189 6.0 7.0 0.00 0.00 0.00 44 1013.0
20260904230855 95 186 6.0 8.0 0.00 0.00 0.00 43 1013.0
20260904230354 96 175 5.0 7.0 0.00 0.00 0.00 43 1013.2
20260904225849 96 176 6.0 7.0 0.00 0.00 0.00 43 1013.0
20260904225347 95 138 7.0 10.0 0.00 0.00 0.00 43 1013.3
20260904224842 95 122 5.0 5.0 0.00 0.00 0.00 45 1013.4
20260904224337 96 127 7.0 8.0 0.00 0.00 0.00 44 1013.3
20260904223836 96 156 6.0 8.0 0.00 0.00 0.00 44 1013.3
20260904223331 96 159 5.0 6.0 0.00 0.00 0.00 44 1013.3
20260904222827 96 186 5.0 6.0 0.00 0.00 0.00 44 1013.0
20260904222328 97 149 8.0 10.0 0.00 0.00 0.00 42 1013.3
20260904221827 97 124 5.0 7.0 0.00 0.00 0.00 40 1013.1
20260904221327 97 130 4.0 5.0 0.00 0.00 0.00 41 1013.1
20260904220823 97 176 7.0 9.0 0.00 0.00 0.00 43 1013.4
20260904220322 97 218 7.0 9.0 0.00 0.00 0.00 42 1013.1
20260904215817 98 201 7.0 9.0 0.00 0.00 0.00 42 1013.4
20260904215313 98 97 3.0 5.0 0.00 0.00 0.00 43 1013.4
20260904214809 97 156 3.0 3.0 0.00 0.00 0.00 42 1013.6
20260904214304 97 130 4.0 7.0 0.00 0.00 0.00 43 1013.5
20260904213802 97 136 5.0 6.0 0.00 0.00 0.00 42 1013.6
20260904213258 96 186 3.0 3.0 0.00 0.00 0.00 44 1013.6
20260904212754 97 191 9.0 11.0 0.00 0.00 0.00 42 1013.7
20260904212254 97 215 9.0 9.0 0.00 0.00 0.00 41 1013.9
20260904211749 96 179 5.0 7.0 0.00 0.00 0.00 43 1013.7
20260904211243 96 162 6.0 7.0 0.00 0.00 0.00 42 1013.7
20260904210738 96 173 6.0 7.0 0.00 0.00 0.00 43 1014.0
20260904210233 96 182 5.0 6.0 0.00 0.00 0.00 44 1013.7
20260904205729 96 177 9.0 10.0 0.00 0.00 0.00 43 1013.9
20260904205225 95 160 7.0 9.0 0.00 0.00 0.00 45 1014.2
20260904204722 97 161 9.0 11.0 0.00 0.00 0.00 43 1014.0
20260904204217 97 188 9.0 10.0 0.00 0.00 0.00 43 1014.1
20260904203713 98 126 7.0 9.0 0.00 0.00 0.00 43 1014.0
20260904203210 97 145 7.0 8.0 0.00 0.00 0.00 44 1014.0
20260904202705 96 149 8.0 9.0 0.00 0.00 0.00 43 1014.3
20260904202201 97 214 11.0 13.0 0.00 0.00 0.00 43 1014.4
20260904201701 97 132 5.0 6.0 0.00 0.00 0.00 43 1014.3
20260904201150 97 174 5.0 6.0 0.00 0.00 0.00 43 1014.4
20260904200650 97 162 11.0 13.0 0.00 0.00 0.00 44 1014.5
20260904200145 96 118 7.0 9.0 0.00 0.00 0.00 45 1014.4
20260904195644 96 169 10.0 13.0 0.00 0.00 0.00 45 1014.5
20260904195144 95 150 7.0 8.0 0.00 0.00 0.00 47 1014.8
20260904194638 96 124 9.0 11.0 0.00 0.00 0.00 45 1014.7
20260904194132 96 128 4.0 6.0 0.00 0.00 0.00 46 1014.6
20260904193627 95 128 7.0 8.0 0.00 0.00 0.00 46 1014.7
20260904193124 96 152 5.0 7.0 0.00 0.00 0.00 45 1015.0
20260904192623 96 199 7.0 9.0 0.00 0.00 0.00 44 1014.8
20260904192119 97 196 8.0 14.0 0.00 0.00 0.00 45 1014.9
20260904191615 97 203 10.0 11.0 0.00 0.00 0.00 43 1014.7
20260904191112 96 192 9.0 13.0 0.00 0.00 0.00 45 1014.8
20260904190607 96 123 9.0 10.0 0.00 0.00 0.00 45 1015.1
20260904185600 96 163 6.0 8.0 0.00 0.00 0.00 47 1015.1
20260904185054 97 166 10.0 14.0 0.00 0.00 0.00 44 1015.1
20260904184548 96 186 7.0 9.0 0.00 0.00 0.00 45 1015.2
20260904184043 96 95 4.0 5.0 0.00 0.00 0.00 44 1015.5
20260904183538 96 158 5.0 7.0 0.00 0.00 0.00 45 1015.4
20260904183033 95 180 3.0 5.0 0.00 0.00 0.00 44 1015.4
20260904182529 95 143 3.0 3.0 0.00 0.00 0.00 43 1015.9
20260904182029 95 114 4.0 5.0 0.00 0.00 0.00 42 1015.5
20260904181524 95 206 4.0 5.0 0.00 0.00 0.00 42 1015.7
20260904181025 96 125 8.0 9.0 0.00 0.00 0.00 43 1015.7
20260904180519 95 144 3.0 5.0 0.00 0.00 0.00 42 1015.8
20260904180014 96 119 7.0 8.0 0.00 0.00 0.00 42 1016.0
20260904175508 96 123 5.0 6.0 0.00 0.00 0.00 41 1015.9
20260904175001 95 145 5.0 6.0 0.00 0.00 0.00 43 1015.7
20260904174456 95 180 7.0 8.0 0.00 0.00 0.00 44 1016.1
20260904173954 95 209 3.0 3.0 0.00 0.00 0.00 43 1016.1
20260904173453 95 200 8.0 8.0 0.00 0.00 0.00 44 1016.0
20260904172949 94 173 7.0 9.0 0.00 0.00 0.00 45 1016.2
20260904172443 95 132 3.0 3.0 0.00 0.00 0.00 50 1016.0
20260904171938 94 146 7.0 8.0 0.00 0.00 0.00 50 1016.3
20260904171434 94 199 3.0 3.0 0.00 0.00 0.00 49 1016.6
20260904170930 94 205 9.0 9.0 0.00 0.00 0.00 49 1016.8
20260904170425 93 197 5.0 6.0 0.00 0.00 0.00 45 1016.6
20260904165920 93 208 7.0 8.0 0.00 0.00 0.00 51 1016.6
20260904165419 93 173 5.0 6.0 0.00 0.00 0.00 51 1016.7
20260904164918 93 153 9.0 10.0 0.00 0.00 0.00 49 1016.8
20260904164419 92 146 3.0 3.0 0.00 0.00 0.00 54 1016.8
20260904163915 92 231 7.0 8.0 0.00 0.00 0.00 48 1016.9
20260904163414 91 168 5.0 6.0 0.00 0.00 0.00 55 1016.7
20260904162914 91 206 5.0 8.0 0.00 0.00 0.00 57 1016.8
20260904162409 91 196 3.0 3.0 0.00 0.00 0.00 56 1016.9
20260904161904 90 202 3.0 3.0 0.00 0.00 0.00 58 1016.8
20260904161400 90 148 6.0 7.0 0.00 0.00 0.00 58 1017.0
20260904160855 90 220 4.0 5.0 0.00 0.00 0.00 61 1016.9
20260904160350 90 182 3.0 3.0 0.00 0.00 0.00 60 1016.9
20260904155846 89 200 5.0 7.0 0.00 0.00 0.00 61 1016.8
20260904155340 89 212 9.0 10.0 0.00 0.00 0.00 61 1016.8
20260904154838 89 196 7.0 9.0 0.00 0.00 0.00 60 1016.8
20260904154333 88 188 6.0 7.0 0.00 0.00 0.00 62 1016.7
20260904153829 88 199 5.0 7.0 0.00 0.00 0.00 66 1016.7
20260904153324 88 207 10.0 10.0 0.00 0.00 0.00 64 1016.2
20260904152821 87 181 5.0 6.0 0.00 0.00 0.00 67 1016.7
20260904152315 87 197 8.0 9.0 0.00 0.00 0.00 68 1016.7
20260904151810 87 153 3.0 6.0 0.00 0.00 0.00 71 1016.8
20260904151309 86 224 5.0 6.0 0.00 0.00 0.00 71 1016.6
20260904150805 86 197 6.0 7.0 0.00 0.00 0.00 73 1016.8
20260904150300 85 219 5.0 7.0 0.00 0.00 0.00 74 1016.6
20260904145758 85 197 8.0 9.0 0.00 0.00 0.00 76 1016.7
20260904145254 85 200 11.0 11.0 0.00 0.00 0.00 76 1016.8